1506510000.1,33746,16.69,74772.0,14.61,-25.39,-25.13,0,*42
1506510001.33,33747,16.69,74768.3,14.61,-25.61,-25.75,0,*4E
1506510002.54,33748,16.69,74772.3,14.61,-24.61,-24.47,0,*40
1506510003.8,33749,16.75,74774.8,14.59,-24.31,-24.11,0,*4C
1506510005.03,33750,16.69,74770.0,14.61,-24.31,-24.15,0,*4B
1506510006.31,33751,16.69,74772.0,14.63,-24.67,-24.41,0,*4A
1506510007.56,33752,16.69,74770.3,14.63,-24.21,-24.05,0,*4B
1506510008.84,33753,16.69,74768.3,14.63,-23.53,-23.29,0,*41
1506510010.1,33754,16.69,74772.3,14.65,-24.21,-23.99,0,*49
1506510011.37,33755,16.69,74772.5,14.67,-23.85,-23.69,0,*4C
1506510012.64,33756,16.69,74770.5,14.67,-23.95,-23.85,0,*4C
1506510013.92,33757,16.69,74770.3,14.67,-23.99,-23.85,0,*41
1506510015.17,33758,16.69,74770.8,14.67,-24.67,-24.51,0,*46
1506510016.4,33759,16.69,74768.8,14.67,-24.47,-24.35,0,*47
1506510017.62,33760,16.69,74772.5,14.71,-24.93,-24.93,0,*4F
1506510018.82,33761,16.69,74772.8,14.69,-25.09,-24.93,0,*45
1506510020.08,33762,16.69,74772.8,14.69,-24.87,-24.71,0,*4D
1506510021.32,33763,16.69,74774.8,14.69,-24.47,-24.25,0,*41
1506510022.53,33764,16.69,74772.8,14.69,-23.89,-23.79,0,*4D
1506510023.79,33765,16.69,74770.5,14.69,-25.55,-25.45,0,*42
1506510025.04,33766,16.69,74768.5,14.71,-25.09,-24.87,0,*4E
1506510026.32,33767,16.69,74770.8,14.71,-24.41,-24.41,0,*48
1506510027.53,33768,16.69,74768.5,14.69,-25.13,-24.93,0,*47
1506510028.79,33769,16.69,74768.3,14.71,-24.71,-24.61,0,*47
1506510030.08,33770,16.69,74768.5,14.71,-25.55,-25.55,0,*4E
1506510031.32,33771,16.69,74770.5,14.69,-25.75,-25.39,0,*4E
1506510032.6,33772,16.69,74772.8,14.71,-26.13,-26.29,0,*45
1506510033.83,33773,16.69,74768.5,14.69,-26.23,-25.97,0,*48
1506510035.08,33774,16.69,74768.0,14.67,-25.97,-25.91,0,*4B
1506510036.34,33775,16.69,74770.5,14.65,-26.81,-26.97,0,*49
1506510037.59,33776,16.69,74768.3,14.65,-27.61,-27.45,0,*4B
1506510038.85,33777,16.69,74770.8,14.65,-26.81,-26.93,0,*4F
1506510040.11,33778,16.69,74774.5,14.61,-25.55,-25.45,0,*46
1506510041.36,33779,16.69,74774.8,14.63,-24.97,-25.03,0,*48
1506510042.58,33780,16.69,74772.5,14.65,-24.67,-24.47,0,*46
1506510043.84,33781,16.69,74770.8,14.63,-25.65,-25.55,0,*40
1506510045.07,33782,16.69,74774.0,14.61,-24.87,-24.61,0,*4A
1506510046.3,33783,16.69,74768.5,14.63,-24.57,-24.35,0,*45
1506510047.52,33784,16.75,74772.0,14.63,-25.19,-25.23,0,*4F
1506510048.76,33785,16.69,74770.0,14.63,-26.03,-26.07,0,*43
1506510050.01,33786,16.69,74770.8,14.63,-26.71,-26.65,0,*41
1506510051.21,33787,16.69,74766.8,14.61,-26.87,-26.87,0,*47
1506510052.43,33788,16.69,74764.5,14.61,-27.29,-27.29,0,*48
1506510053.64,33789,16.69,74768.5,14.61,-26.03,-25.91,0,*41
1506510054.9,33790,16.69,74770.8,14.59,-24.71,-24.57,0,*4E
1506510056.13,33791,16.69,74770.0,14.59,-24.57,-24.47,0,*4A
1506510057.39,33792,16.69,74770.5,14.59,-24.57,-24.25,0,*4D
1506510058.62,33793,16.69,74768.3,14.61,-23.95,-23.89,0,*4F
1506510059.9,33794,16.69,74772.8,14.63,-24.21,-23.99,0,*43
1506510061.15,33795,16.69,74768.5,14.65,-23.99,-23.85,0,*4D
1506510062.36,33796,16.69,74768.0,14.65,-24.77,-24.51,0,*47
1506510063.64,33797,16.69,74770.8,14.63,-26.55,-26.33,0,*44
1506510064.87,33798,16.69,74768.0,14.63,-25.49,-25.39,0,*4C
1506510066.15,33799,16.69,74768.3,14.63,-24.83,-24.83,0,*4A
1506510067.44,33800,16.69,74772.3,14.63,-24.71,-24.41,0,*46
1506510068.66,33801,16.69,74772.0,14.65,-24.77,-24.67,0,*43
1506510069.91,33802,16.69,74770.5,14.65,-24.15,-23.99,0,*42
1506510071.14,33803,16.69,74770.8,14.67,-24.77,-24.51,0,*46
1506510072.36,33804,16.69,74770.3,14.67,-24.97,-24.93,0,*41
1506510073.63,33805,16.69,74770.3,14.67,-23.95,-23.69,0,*47
1506510074.84,33806,16.69,74768.8,14.69,-24.61,-24.61,0,*49
1506510076.07,33807,16.69,74768.0,14.69,-24.87,-24.61,0,*40
1506510077.27,33808,16.69,74770.3,14.69,-25.23,-25.23,0,*47
1506510078.51,33809,16.69,74770.8,14.69,-25.61,-25.55,0,*41
1506510079.79,33810,16.69,74770.0,14.71,-24.25,-23.99,0,*47
1506510081.02,33811,16.69,74764.8,14.71,-24.61,-24.57,0,*43
1506510082.26,33812,16.69,74770.0,14.69,-25.71,-25.91,0,*42
1506510083.48,33813,16.69,74768.5,14.69,-25.29,-24.97,0,*49
1506510084.74,33814,16.69,74768.0,14.69,-24.15,-24.11,0,*4E
1506510085.98,33815,16.69,74768.0,14.71,-24.93,-24.87,0,*47
1506510087.2,33816,16.69,74766.8,14.71,-25.09,-24.93,0,*43
1506510088.46,33817,16.69,74768.5,14.69,-23.99,-23.95,0,*45
1506510089.69,33818,16.69,74770.0,14.71,-26.39,-26.39,0,*4F
1506510090.9,33819,16.69,74770.5,14.69,-25.39,-25.23,0,*4C
1506510092.19,33820,16.69,74766.3,14.71,-25.71,-25.71,0,*44
1506510093.39,33821,16.69,74770.5,14.69,-24.97,-24.93,0,*48
1506510094.66,33822,16.69,74770.5,14.71,-23.99,-23.95,0,*4A
1506510095.93,33823,16.69,74770.0,14.71,-24.71,-24.47,0,*42
1506510097.2,33824,16.69,74770.5,14.71,-24.11,-23.99,0,*47
1506510098.48,33825,16.69,74768.3,14.75,-24.41,-24.41,0,*45
1506510099.74,33826,16.69,74768.5,14.79,-24.47,-24.41,0,*4C
1506510100.97,33827,16.69,74770.8,14.77,-25.13,-24.87,0,*49
1506510102.26,33828,16.69,74766.8,14.75,-28.05,-28.21,0,*4E
1506510103.49,33829,16.69,74770.3,14.71,-29.67,-29.79,0,*42
1506510104.76,33830,16.69,74768.0,14.67,-29.29,-29.17,0,*4F
1506510106.03,33831,16.69,74770.8,14.67,-26.93,-26.81,0,*40
1506510107.26,33832,16.69,74768.3,14.63,-25.09,-24.97,0,*42
1506510108.46,33833,16.69,74770.8,14.65,-24.61,-24.47,0,*47
1506510109.71,33834,16.69,74772.8,14.65,-25.81,-25.81,0,*44
1506510110.94,33835,16.69,74768.5,14.65,-25.91,-25.81,0,*44
1506510112.16,33836,16.69,74770.0,14.67,-24.61,-24.51,0,*47
1506510113.38,33837,16.69,74770.8,14.65,-27.19,-27.07,0,*48
1506510114.62,33838,16.69,74770.8,14.65,-25.97,-26.03,0,*46
1506510115.82,33839,16.69,74770.0,14.65,-25.13,-24.97,0,*44
1506510117.03,33840,16.75,74772.0,14.65,-24.35,-24.31,0,*43
1506510118.26,33841,16.69,74770.3,14.65,-24.35,-24.21,0,*43
1506510119.48,33842,16.69,74770.0,14.71,-25.09,-24.97,0,*46
1506510120.71,33843,16.69,74772.8,14.67,-26.49,-26.49,0,*46
1506510121.99,33844,16.69,74768.8,14.67,-26.17,-26.29,0,*4C
1506510123.24,33845,16.69,74774.8,14.67,-27.99,-28.15,0,*4B
1506510124.45,33846,16.69,74772.5,14.65,-26.49,-26.45,0,*4D
1506510125.7,33847,16.69,74772.8,14.63,-26.97,-26.87,0,*47
1506510126.91,33848,16.69,74770.0,14.61,-25.23,-25.09,0,*43
1506510128.13,33849,16.69,74770.3,14.63,-25.19,-25.23,0,*41
1506510129.37,33850,16.69,74766.8,14.63,-25.65,-25.49,0,*4E
1506510130.61,33851,16.69,74768.5,14.63,-27.19,-27.51,0,*4D
1506510131.85,33852,16.69,74766.8,14.61,-27.71,-27.61,0,*41
1506510133.11,33853,16.69,74766.8,14.61,-26.77,-26.77,0,*41
1506510134.39,33854,16.69,74768.3,14.59,-26.29,-26.29,0,*4D
1506510135.61,33855,16.69,74764.3,14.61,-24.93,-24.87,0,*42
1506510136.87,33856,16.69,74768.0,14.59,-25.29,-25.39,0,*4E
1506510138.1,33857,16.69,74766.8,14.59,-24.05,-23.79,0,*42
1506510139.32,33858,16.69,74770.8,14.61,-24.93,-25.03,0,*42
1506510140.56,33859,16.69,74770.0,14.61,-25.75,-25.61,0,*4E
1506510141.76,33860,16.69,74770.5,14.61,-25.23,-25.09,0,*49
1506510142.99,33861,16.69,74770.8,14.61,-25.13,-25.03,0,*41
1506510144.22,33862,16.69,74768.0,14.63,-24.05,-23.89,0,*42
1506510145.48,33863,16.69,74772.0,14.65,-23.95,-23.85,0,*47
1506510146.68,33864,16.69,74770.5,14.65,-25.49,-25.35,0,*4A
1506510147.9,33865,16.69,74766.5,14.67,-25.19,-25.19,0,*42
1506510149.17,33866,16.69,74772.0,14.67,-24.67,-24.67,0,*41
1506510150.37,33867,16.69,74770.3,14.65,-26.49,-26.49,0,*42
1506510151.6,33868,16.69,74768.8,14.65,-25.03,-24.97,0,*41
1506510152.87,33869,16.69,74770.3,14.67,-24.83,-24.67,0,*44
1506510154.07,33870,16.69,74770.5,14.65,-24.97,-24.93,0,*40
1506510155.28,33871,16.69,74766.0,14.67,-24.93,-24.77,0,*4D
1506510156.52,33872,16.69,74770.0,14.67,-25.65,-25.61,0,*40
1506510157.74,33873,16.69,74768.0,14.67,-25.19,-25.19,0,*45
1506510158.99,33874,16.69,74770.8,14.67,-24.83,-24.93,0,*43
1506510160.21,33875,16.69,74768.0,14.67,-24.97,-24.97,0,*43
1506510161.43,33876,16.69,74770.5,14.67,-24.61,-24.51,0,*43
1506510162.65,33877,16.69,74766.0,14.67,-25.19,-25.19,0,*41
1506510163.86,33878,16.69,74766.0,14.69,-25.23,-25.23,0,*40
1506510165.12,33879,16.69,74770.3,14.69,-24.25,-23.95,0,*4D
1506510166.35,33880,16.69,74770.3,14.71,-25.61,-25.61,0,*4E
1506510167.56,33881,16.69,74768.3,14.69,-25.23,-25.13,0,*45
1506510168.77,33882,16.69,74772.3,14.69,-24.61,-24.47,0,*41
1506510169.99,33883,16.69,74768.0,14.71,-25.23,-25.13,0,*4E
1506510171.25,33884,16.69,74770.3,14.71,-25.61,-25.71,0,*4B
1506510172.52,33885,16.69,74772.3,14.71,-25.71,-25.61,0,*4A
1506510173.76,33886,16.69,74772.8,14.71,-24.93,-24.87,0,*4D
1506510174.96,33887,16.69,74770.8,14.69,-24.97,-24.93,0,*44
1506510176.25,33888,16.69,74768.0,14.71,-24.41,-24.25,0,*44
1506510177.53,33889,16.69,74770.5,14.71,-23.33,-23.19,0,*4F
1506510178.81,33890,16.69,74770.0,14.75,-23.29,-23.23,0,*41
1506510180.04,33891,16.69,74770.3,14.77,-24.15,-24.05,0,*49
1506510181.27,33892,16.69,74770.8,14.77,-23.89,-23.85,0,*47
1506510182.48,33893,16.69,74768.5,14.77,-24.51,-24.35,0,*48
1506510183.71,33894,16.69,74770.5,14.81,-23.85,-23.79,0,*47
1506510184.96,33895,16.69,74768.3,14.81,-23.33,-23.19,0,*4D
1506510186.24,33896,16.69,74774.3,14.83,-24.25,-24.11,0,*43
1506510187.47,33897,16.69,74768.0,14.83,-23.79,-23.79,0,*45
1506510188.73,33898,16.69,74768.0,14.83,-26.17,-26.07,0,*4B
1506510189.96,33899,16.69,74768.3,14.83,-26.07,-26.07,0,*4B
1506510191.24,33900,16.69,74774.3,14.79,-25.81,-25.71,0,*40
1506510192.5,33901,16.69,74768.8,14.81,-23.99,-23.85,0,*44
1506510193.73,33902,16.69,74772.8,14.83,-24.51,-24.35,0,*4A
1506510194.99,33903,16.69,74768.3,14.83,-25.71,-25.49,0,*42
1506510196.22,33904,16.69,74772.0,14.83,-27.07,-27.03,0,*4A
1506510197.48,33905,16.69,74772.5,14.81,-26.13,-26.13,0,*4D
1506510198.74,33906,16.69,74768.8,14.81,-25.81,-25.75,0,*45
1506510199.97,33907,16.69,74768.3,14.81,-26.29,-26.07,0,*43
1506510201.17,33908,16.69,74768.0,14.81,-24.61,-24.47,0,*44
1506510202.41,33909,16.69,74768.5,14.79,-24.77,-24.61,0,*41
1506510203.65,33910,16.69,74768.8,14.81,-24.15,-24.11,0,*4D
1506510204.9,33911,16.69,74768.5,14.81,-24.15,-23.99,0,*4B
1506510206.15,33912,16.69,74770.0,14.81,-25.29,-25.29,0,*4B
1506510207.42,33913,16.69,74770.8,14.81,-24.71,-24.83,0,*47
1506510208.61,33914,16.69,74770.8,14.81,-24.93,-24.77,0,*47
1506510209.87,33915,16.69,74768.0,14.81,-24.25,-24.11,0,*4B
1506510211.13,33916,16.69,74768.5,14.83,-24.35,-24.25,0,*4C
1506510212.36,33917,16.69,74766.0,14.85,-24.51,-24.41,0,*4B
1506510213.62,33918,16.69,74766.8,14.85,-24.25,-24.25,0,*45
1506510214.82,33919,16.69,74764.5,14.85,-25.19,-25.19,0,*44
1506510216.05,33920,16.69,74768.0,14.85,-26.17,-26.23,0,*49
1506510217.33,33921,16.69,74770.8,14.83,-26.17,-26.33,0,*4F
1506510218.61,33922,16.69,74770.5,14.83,-28.05,-28.09,0,*46
1506510219.84,33923,16.69,74770.5,14.79,-27.89,-27.77,0,*4F
1506510221.11,33924,16.69,74768.8,14.79,-28.75,-28.47,0,*48
1506510222.32,33925,16.69,74768.8,14.77,-27.03,-27.03,0,*46
1506510223.57,33926,16.69,74768.0,14.77,-26.13,-26.17,0,*41
1506510224.81,33927,16.69,74768.3,14.75,-25.91,-26.03,0,*4E
1506510226.04,33928,16.69,74772.0,14.75,-26.39,-26.39,0,*49
1506510227.28,33929,16.69,74772.0,14.71,-27.29,-27.29,0,*4C
1506510228.51,33930,16.69,74766.8,14.69,-28.31,-28.47,0,*4C
1506510229.76,33931,16.69,74770.0,14.67,-28.37,-28.47,0,*45
1506510231.01,33932,16.69,74766.3,14.65,-26.97,-26.93,0,*47
1506510232.22,33933,16.69,74766.8,14.65,-27.07,-27.07,0,*42
1506510233.42,33934,16.69,74768.5,14.65,-27.13,-27.13,0,*45
1506510234.64,33935,16.69,74770.3,14.61,-26.55,-26.45,0,*41
1506510235.87,33936,16.69,74770.8,14.63,-27.71,-27.71,0,*41
1506510237.13,33937,16.69,74768.0,14.61,-26.77,-26.71,0,*44
1506510238.41,33938,16.69,74766.0,14.59,-26.13,-26.13,0,*46
1506510239.7,33939,16.69,74766.0,14.59,-25.75,-25.75,0,*47
1506510240.96,33940,16.69,74768.3,14.57,-26.17,-26.29,0,*4A
1506510242.2,33941,16.69,74764.3,14.59,-26.03,-26.03,0,*48
1506510243.44,33942,16.69,74768.0,14.59,-24.47,-24.31,0,*4A
1506510244.68,33943,16.69,74768.5,14.61,-24.71,-24.57,0,*45
1506510245.91,33944,16.69,74766.8,14.63,-25.39,-25.39,0,*44
1506510247.14,33945,16.75,74772.8,14.61,-25.13,-25.03,0,*46
1506510248.42,33946,16.69,74768.3,14.63,-25.81,-25.81,0,*46
1506510249.67,33947,16.69,74772.5,14.61,-26.13,-26.13,0,*45
1506510250.97,33948,16.69,74766.3,14.63,-24.71,-24.71,0,*48
1506510252.2,33949,16.69,74766.0,14.63,-24.57,-24.51,0,*4F
1506510253.48,33950,16.69,74768.3,14.63,-25.55,-25.55,0,*41
1506510254.71,33951,16.69,74768.3,14.65,-25.03,-24.97,0,*4A
1506510255.96,33952,16.69,74766.5,14.67,-24.61,-24.67,0,*41
1506510257.18,33953,16.69,74768.3,14.67,-24.61,-24.51,0,*45
1506510258.41,33954,16.69,74770.3,14.67,-24.77,-24.61,0,*46
1506510259.66,33955,16.69,74770.8,14.67,-25.91,-26.13,0,*49
1506510260.91,33956,16.69,74764.0,14.67,-25.65,-25.75,0,*42
1506510262.16,33957,16.69,74768.5,14.67,-25.91,-25.81,0,*43
1506510263.42,33958,16.69,74768.0,14.67,-26.13,-26.03,0,*4C
1506510264.64,33959,16.69,74770.5,14.67,-24.61,-24.47,0,*48
1506510265.85,33960,16.69,74768.8,14.65,-24.61,-24.51,0,*47
1506510267.1,33961,16.69,74768.8,14.67,-27.61,-27.51,0,*44
1506510268.35,33962,16.69,74768.5,14.65,-27.45,-27.45,0,*46
1506510269.56,33963,16.69,74766.8,14.65,-28.37,-28.37,0,*47
1506510270.82,33964,16.69,74764.3,14.61,-28.21,-28.25,0,*40
1506510272.08,33965,16.69,74766.8,14.59,-27.29,-27.23,0,*44
1506510273.28,33966,16.69,74770.3,14.57,-26.45,-26.49,0,*4F
1506510274.52,33967,16.69,74768.8,14.59,-25.61,-25.61,0,*4C
1506510275.75,33968,16.69,74768.5,14.59,-23.79,-23.79,0,*43
1506510276.98,33969,16.69,74774.0,14.59,-24.31,-24.31,0,*42
1506510278.21,33970,16.69,74768.3,14.61,-24.93,-24.87,0,*44
1506510279.41,33971,16.69,74770.3,14.61,-24.77,-24.77,0,*40
1506510280.62,33972,16.69,74772.3,14.61,-24.57,-24.57,0,*43
1506510281.85,33973,16.69,74770.5,14.65,-24.83,-24.77,0,*4D
1506510283.1,33974,16.69,74768.0,14.63,-23.99,-23.89,0,*46
1506510284.29,33975,16.69,74768.0,14.65,-24.93,-24.97,0,*44
1506510285.54,33976,16.69,74774.3,14.67,-25.03,-24.97,0,*4D
1506510286.79,33977,16.69,74768.5,14.65,-25.03,-25.29,0,*4A
1506510288.02,33978,16.69,74770.3,14.65,-26.45,-26.33,0,*4C
1506510289.28,33979,16.69,74770.8,14.63,-25.71,-25.65,0,*4F
1506510290.56,33980,16.69,74764.5,14.63,-24.87,-24.71,0,*45
1506510291.8,33981,16.69,74766.8,14.65,-24.21,-24.05,0,*4D
1506510293.04,33982,16.69,74768.3,14.67,-24.77,-24.67,0,*4B
1506510294.28,33983,16.69,74768.3,14.65,-26.49,-26.33,0,*44
1506510295.47,33984,16.69,74768.5,14.65,-25.35,-25.35,0,*4E
1506510296.75,33985,16.69,74766.0,14.67,-25.29,-25.29,0,*4D
1506510297.98,33986,16.69,74768.0,14.65,-25.75,-25.61,0,*49
1506510299.18,33987,16.75,74770.0,14.65,-24.61,-24.47,0,*49
1506510300.39,33988,16.69,74766.8,14.65,-24.05,-24.05,0,*42
1506510301.64,33989,16.69,74766.8,14.67,-25.13,-25.03,0,*40
1506510302.91,33990,16.69,74766.3,14.67,-25.45,-25.45,0,*49
1506510304.13,33991,16.69,74766.5,14.67,-24.77,-24.77,0,*48
1506510305.36,33992,16.69,74766.8,14.65,-25.29,-25.19,0,*4A
1506510306.59,33993,16.69,74766.0,14.67,-25.61,-25.49,0,*40
1506510307.85,33994,16.69,74770.0,14.65,-26.33,-26.33,0,*4F
1506510309.07,33995,16.69,74764.5,14.65,-25.81,-25.91,0,*4F
1506510310.33,33996,16.75,74768.3,14.67,-26.33,-26.45,0,*4E
1506510311.58,33997,16.69,74766.8,14.63,-29.01,-29.07,0,*4C
1506510312.85,33998,16.69,74768.8,14.63,-26.71,-26.71,0,*45
1506510314.09,33999,16.69,74770.8,14.61,-25.87,-25.75,0,*4B
1506510315.35,34000,16.69,74770.0,14.61,-25.75,-25.75,0,*48
1506510316.59,34001,16.69,74766.8,14.63,-25.49,-25.49,0,*4B
1506510317.82,34002,16.69,74764.5,14.61,-25.13,-25.03,0,*4B
1506510319.08,34003,16.69,74770.5,14.61,-25.71,-25.75,0,*4F
1506510320.29,34004,16.69,74772.0,14.61,-25.09,-25.09,0,*4C
1506510321.5,34005,16.69,74768.8,14.61,-26.45,-26.39,0,*46
1506510322.76,34006,16.69,74770.8,14.61,-25.75,-25.71,0,*4A
1506510323.99,34007,16.69,74770.0,14.61,-25.13,-25.03,0,*4E
1506510325.23,34008,16.69,74770.5,14.59,-26.03,-26.07,0,*4F
1506510326.47,34009,16.69,74770.5,14.57,-27.93,-27.99,0,*4E
1506510327.72,34010,16.69,74768.8,14.59,-27.29,-27.45,0,*48
1506510328.95,34011,16.69,74774.5,14.57,-25.49,-25.45,0,*41
1506510330.16,34012,16.69,74770.8,14.57,-24.47,-24.35,0,*4B
1506510331.41,34013,16.69,74772.8,14.57,-23.85,-23.65,0,*41
1506510332.67,34014,16.69,74770.8,14.59,-24.77,-24.71,0,*40
1506510333.93,34015,16.69,74774.5,14.59,-24.31,-24.15,0,*41
1506510335.14,34016,16.69,74772.8,14.61,-25.91,-26.07,0,*43
1506510336.37,34017,16.69,74772.3,14.61,-26.39,-26.29,0,*4F
1506510337.65,34018,16.69,74768.0,14.59,-26.55,-26.55,0,*4A
1506510338.93,34019,16.69,74774.0,14.55,-26.17,-26.13,0,*43
1506510340.19,34020,16.69,74772.0,14.57,-26.29,-26.29,0,*4F
1506510341.4,34021,16.69,74770.5,14.57,-26.65,-26.61,0,*4A
1506510342.6,34022,16.69,74770.3,14.57,-26.61,-26.49,0,*47
1506510343.88,34023,16.69,74770.0,14.55,-27.35,-27.35,0,*4E
1506510345.11,34024,16.69,74768.3,14.53,-27.71,-27.83,0,*42
1506510346.39,34025,16.69,74762.3,14.49,-26.77,-26.77,0,*45
1506510347.6,34026,16.69,74766.5,14.47,-25.65,-25.65,0,*48
1506510348.81,34027,16.69,74770.3,14.53,-25.49,-25.39,0,*4B
1506510350.07,34028,16.69,74770.3,14.53,-24.87,-24.71,0,*4A
1506510351.3,34029,16.69,74768.3,14.55,-24.51,-24.35,0,*46
1506510352.54,34030,16.69,74770.8,14.57,-24.83,-24.77,0,*45
1506510353.79,34031,16.69,74768.8,14.53,-24.15,-24.15,0,*4B
1506510355.01,34032,16.69,74770.5,14.55,-25.23,-25.23,0,*4E
1506510356.25,34033,16.69,74770.8,14.55,-25.49,-25.39,0,*48
1506510357.51,34034,16.69,74768.3,14.55,-24.35,-24.21,0,*4D
1506510358.72,34035,16.69,74768.5,14.57,-24.61,-24.51,0,*48
1506510359.97,34036,16.69,74772.5,14.57,-24.11,-24.11,0,*48
1506510361.22,34037,16.69,74768.5,14.59,-24.87,-24.61,0,*4F
1506510362.46,34038,16.69,74770.3,14.59,-25.09,-25.09,0,*48
1506510363.72,34039,16.69,74766.0,14.59,-24.47,-24.41,0,*4F
1506510364.96,34040,16.69,74764.0,14.59,-26.03,-26.03,0,*47
1506510366.2,34041,16.69,74770.0,14.57,-26.33,-26.45,0,*49
1506510367.41,34042,16.69,74766.0,14.57,-25.49,-25.49,0,*4B
1506510368.67,34043,16.69,74768.5,14.57,-26.17,-26.29,0,*47
1506510369.91,34044,16.69,74764.3,14.59,-25.39,-25.39,0,*43
1506510371.15,34045,16.69,74768.5,14.57,-24.15,-24.11,0,*48
1506510372.41,34046,16.69,74770.3,14.59,-26.29,-26.45,0,*4B
1506510373.66,34047,16.69,74766.0,14.57,-26.55,-26.17,0,*48
1506510374.87,34048,16.69,74768.5,14.57,-25.65,-25.61,0,*45
1506510376.14,34049,16.69,74770.5,14.57,-26.33,-26.13,0,*42
1506510377.4,34050,16.69,74770.5,14.57,-25.97,-25.97,0,*48
1506510378.69,34051,16.69,74770.0,14.55,-25.97,-25.97,0,*4B
1506510379.94,34052,16.69,74770.8,14.55,-25.97,-25.87,0,*49
1506510381.17,34053,16.69,74772.5,14.55,-25.13,-24.97,0,*44
1506510382.42,34054,16.69,74770.3,14.55,-25.13,-25.03,0,*4F
1506510383.64,34055,16.69,74768.3,14.57,-25.61,-25.49,0,*47
1506510384.92,34056,16.69,74768.5,14.55,-26.17,-26.17,0,*4C
1506510386.19,34057,16.69,74768.8,14.53,-25.71,-25.55,0,*4D
1506510387.44,34058,16.69,74768.0,14.55,-24.97,-24.83,0,*47
1506510388.63,34059,16.69,74774.8,14.57,-24.93,-24.77,0,*4B
1506510389.87,34060,16.69,74772.0,14.57,-24.83,-24.77,0,*40
1506510391.1,34061,16.69,74772.3,14.59,-25.13,-24.93,0,*4D
1506510392.33,34062,16.69,74772.3,14.59,-24.77,-24.77,0,*47
1506510393.61,34063,16.69,74770.3,14.59,-24.87,-24.87,0,*46
1506510394.9,34064,16.69,74774.5,14.59,-26.13,-26.13,0,*41
1506510396.1,34065,16.75,74774.8,14.57,-25.19,-25.13,0,*44
1506510397.38,34066,16.69,74772.8,14.59,-25.55,-25.45,0,*42
1506510398.59,34067,16.69,74772.3,14.57,-25.61,-25.49,0,*46
1506510399.81,34068,16.69,74770.3,14.59,-24.93,-24.93,0,*4D
1506510401.06,34069,16.69,74770.5,14.57,-25.45,-25.45,0,*42
1506510402.28,34070,16.69,74774.0,14.57,-25.49,-25.61,0,*40
1506510403.49,34071,16.69,74772.3,14.57,-26.65,-26.65,0,*4B
1506510404.73,34072,16.69,74772.3,14.57,-26.65,-26.77,0,*4B
1506510405.98,34073,16.69,74772.5,14.55,-26.33,-26.23,0,*4A
1506510407.25,34074,16.69,74772.5,14.55,-24.71,-24.57,0,*48
1506510408.44,34075,16.69,74774.0,14.57,-25.19,-25.19,0,*4F
1506510409.68,34076,16.69,74768.3,14.57,-24.83,-24.93,0,*4D
1506510410.93,34077,16.69,74772.5,14.59,-24.61,-24.83,0,*4F
1506510412.16,34078,16.69,74772.0,14.59,-24.57,-24.57,0,*4C
1506510413.45,34079,16.69,74772.0,14.59,-24.87,-24.71,0,*44
1506510414.7,34080,16.69,74768.8,14.59,-24.87,-24.57,0,*46
1506510415.93,34081,16.69,74772.5,14.59,-25.09,-25.13,0,*41
1506510417.19,34082,16.69,74774.8,14.59,-24.61,-24.41,0,*4B
1506510418.4,34083,16.69,74774.0,14.61,-23.79,-23.75,0,*4F
1506510419.62,34084,16.75,74776.8,14.61,-23.95,-23.79,0,*46
1506510420.88,34085,16.69,74774.0,14.61,-24.87,-24.87,0,*45
1506510422.14,34086,16.69,74772.8,14.61,-25.75,-25.71,0,*42
1506510423.37,34087,16.69,74772.3,14.61,-24.15,-24.05,0,*46
1506510424.62,34088,16.69,74770.0,14.63,-23.99,-23.89,0,*4B
1506510425.85,34089,16.69,74772.8,14.63,-23.89,-23.75,0,*48
1506510427.12,34090,16.75,74774.0,14.63,-25.81,-25.81,0,*43
1506510428.35,34091,16.69,74772.0,14.63,-25.87,-25.87,0,*42
1506510429.58,34092,16.69,74774.3,14.63,-24.57,-24.51,0,*47
1506510430.86,34093,16.69,74770.8,14.63,-24.41,-24.41,0,*40
1506510432.06,34094,16.69,74768.0,14.65,-25.19,-25.35,0,*4F
1506510433.29,34095,16.69,74772.5,14.65,-25.03,-24.97,0,*4C
1506510434.55,34096,16.75,74772.8,14.63,-25.55,-25.65,0,*46
1506510435.83,34097,16.69,74772.3,14.63,-24.87,-24.71,0,*4D
1506510437.09,34098,16.69,74772.0,14.63,-26.17,-26.07,0,*4A
1506510438.32,34099,16.69,74774.0,14.63,-26.49,-26.65,0,*44
1506510439.6,34100,16.69,74772.8,14.63,-25.81,-25.71,0,*44
1506510440.81,34101,16.69,74774.0,14.61,-25.13,-25.09,0,*43
1506510442.08,34102,16.69,74772.8,14.61,-25.71,-25.71,0,*4B
1506510443.28,34103,16.75,74778.5,14.61,-25.09,-24.93,0,*48
1506510444.56,34104,16.69,74770.3,14.63,-24.71,-24.67,0,*48
1506510445.85,34105,16.69,74774.5,14.63,-26.33,-26.33,0,*4E
1506510447.07,34106,16.69,74772.0,14.61,-27.19,-27.07,0,*40
1506510448.33,34107,16.69,74772.0,14.61,-26.29,-26.29,0,*4E
1506510449.55,34108,16.69,74772.3,14.57,-27.29,-27.29,0,*44
1506510450.75,34109,16.69,74774.8,14.57,-26.61,-26.65,0,*41
1506510452.01,34110,16.75,74774.8,14.57,-25.81,-25.97,0,*4A
1506510453.27,34111,16.69,74772.0,14.57,-26.29,-26.17,0,*41
1506510454.52,34112,16.69,74772.8,14.57,-26.13,-26.17,0,*4B
1506510455.73,34113,16.69,74772.3,14.57,-25.61,-25.65,0,*4A
1506510456.98,34114,16.69,74772.3,14.55,-25.13,-25.03,0,*4A
1506510458.25,34115,16.69,74772.0,14.55,-24.71,-25.13,0,*4F
1506510459.53,34116,16.69,74770.0,14.55,-26.71,-26.71,0,*49
1506510460.79,34117,16.69,74770.5,14.53,-25.81,-25.55,0,*47
1506510462.02,34118,16.69,74772.0,14.55,-25.13,-24.97,0,*4A
1506510463.27,34119,16.69,74774.8,14.55,-25.03,-24.97,0,*4A
1506510464.5,34120,16.69,74768.8,14.57,-24.67,-24.51,0,*4B
1506510465.71,34121,16.69,74772.3,14.57,-25.61,-25.65,0,*4B
1506510466.91,34122,16.69,74774.3,14.57,-26.45,-26.45,0,*4C
1506510468.16,34123,16.69,74774.3,14.55,-26.87,-26.97,0,*4E
1506510469.44,34124,16.69,74772.8,14.55,-27.39,-27.39,0,*48
1506510470.68,34125,16.69,74770.5,14.53,-26.39,-26.33,0,*45
1506510471.89,34126,16.69,74776.3,14.53,-25.23,-25.13,0,*4F
1506510473.09,34127,16.75,74778.8,14.53,-25.13,-24.97,0,*40
1506510474.3,34128,16.69,74774.8,14.53,-25.19,-25.19,0,*42
1506510475.51,34129,16.69,74772.5,14.53,-25.13,-24.97,0,*4E
1506510476.77,34130,16.69,74774.5,14.53,-25.55,-25.55,0,*4B
1506510478.04,34131,16.69,74776.0,14.53,-26.17,-26.17,0,*4A
1506510479.25,34132,16.69,74776.3,14.53,-26.65,-26.65,0,*49
1506510480.48,34133,16.69,74774.5,14.53,-26.71,-26.65,0,*4D
1506510481.73,34134,16.69,74776.0,14.49,-26.45,-26.55,0,*45
1506510482.93,34135,16.69,74774.0,14.47,-27.51,-27.51,0,*4B
1506510484.13,34136,16.69,74774.3,14.47,-27.77,-27.93,0,*42
1506510485.41,34137,16.69,74772.0,14.45,-29.01,-29.01,0,*4B
1506510486.61,34138,16.69,74774.8,14.43,-28.15,-28.31,0,*44
1506510487.89,34139,16.69,74772.3,14.41,-27.23,-27.35,0,*46
1506510489.09,34140,16.75,74776.8,14.39,-27.77,-27.77,0,*40
1506510490.35,34141,16.69,74770.8,14.35,-27.45,-27.35,0,*4A
1506510491.61,34142,16.69,74770.3,14.37,-27.55,-27.61,0,*4B
1506510492.86,34143,16.69,74770.3,14.35,-27.83,-27.83,0,*4F
1506510494.11,34144,16.69,74770.5,14.35,-26.17,-26.17,0,*48
1506510495.4,34145,16.69,74772.8,14.33,-26.13,-26.13,0,*4F